Weather Roundup
Issued by NWS Springfield, MO

Home | Current Version | Previous Version | Text Only | Print | Product List | Glossary On
Versions: 1 2 3 4 5 6 7 8 9 10 11 12 13 14 15 16 17 18 19 20 21 22 23 24 25 26 27 28 29 30 31 32 33 34 35 36 37 38 39 40 41 42 43 44 45 46 47 48 49 50
000
NZUS99 KSGF 170907
HRRSGF

HOURLY WEATHER
NATIONAL WEATHER SERVICE SPRINGFIELD MO
300 AM CST WED JAN 17 2018

......SGF CWA......

CITY           SKY/WX    TMP DP  RH WIND       PRES   REMARKS
SPRINGFIELD    CLOUDY    -6 -10  83 W3        30.65S
JOPLIN         PTCLDY    -2  -5  87 S3        30.70F
WEST PLAINS    CLEAR      0  -4  83 CALM      30.64R
ROLLA          CLOUDY     1  -2  87 W5        30.65S WCI  -9
OSAGE BEACH    CLOUDY    -6 -13  71 CALM      30.70S

......SURROUNDING SGF CWA......

CITY           SKY/WX    TMP DP  RH WIND       PRES   REMARKS
CHANUTE        CLOUDY     1  -3  83 S3        30.69F
PARSONS        CLOUDY    -3  -7  82 CALM      30.72S
COFFEYVILLE    PTCLDY    -1  -5  82 CALM      30.73S
EMPORIA        CLOUDY     2  -2  83 SW6       30.66S WCI  -9
GROVE OK       CLOUDY     0  -4  85 CALM      30.73S
ROGERS AR      CLOUDY     0  -4  83 CALM      30.67F
SILOAM SPRINGS CLOUDY     0  -4  83 E3        30.69F
HARRISON AR    CLOUDY     2  -2  83 W5        30.65S WCI  -8
NEAR YELLVILLE CLOUDY     1  -3  83 W6        30.73S WCI -10

......KANSAS AND MISSOURI......

CITY           SKY/WX    TMP DP  RH WIND       PRES   REMARKS
KANSAS CTY INT CLOUDY    -1  -4  87 S6        30.66S WCI -13
DOWNTOWN KC    CLOUDY     4  -1  80 SW5       30.69F WCI  -5
COLUMBIA       CLOUDY     1  -3  83 W5        30.67S WCI  -9
SEDALIA        PTCLDY     1  -2  87 W5        30.69S WCI  -9
ST JOSEPH        N/A    N/A N/A N/A MISG      30.68F
ST LOUIS       CLEAR      5   0  79 W7        30.68S WCI  -7
SPIRIT OF STL  CLEAR      4   0  83 W6        30.69S WCI  -7
KIRKSVILLE     CLOUDY    -2  -4  91 W5        30.64S WCI -12
WICHITA        CLOUDY     4   0  83 SW6       30.66S WCI  -7
TOPEKA         CLOUDY    -2  -6  83 CALM      30.68S
OLATHE         CLOUDY    -1  -4  87 SW3       30.66S

......TENNESSEE......

CITY           SKY/WX    TMP DP  RH WIND       PRES   REMARKS
MEMPHIS        FAIR      10   3  73 N10       30.68R WCI  -4
NASHVILLE      CLOUDY     8   1  73 N10       30.61S WCI  -6

......ARKANSAS.......

CITY           SKY/WX    TMP DP  RH WIND       PRES   REMARKS
FAYETTEVILLE   CLOUDY     0  -2  91 CALM      30.68F
FT SMITH       CLEAR      9   1  70 NW3       30.76F
LITTLE ROCK    PTCLDY     8   2  76 N9        30.77S WCI  -5

......OKLAHOMA.......

CITY           SKY/WX    TMP DP  RH WIND       PRES   REMARKS
TULSA          CLOUDY     8   4  83 CALM      30.75S
PONCA CITY     CLOUDY     4  -1  80 CALM      30.72R
MCALESTER      CLOUDY     4   1  88 CALM      30.75R
OKLAHOMA CITY  CLOUDY     4  -1  80 CALM      30.69S

......IOWA............

CITY           SKY/WX    TMP DP  RH WIND       PRES   REMARKS
DES MOINES     CLOUDY    -2  -7  79 SW5       30.60F WCI -12
QUAD CITIES    FAIR       1  -3  83 W6        30.61S WCI -10

......ILLINOIS........

CITY           SKY/WX    TMP DP  RH WIND       PRES   REMARKS
QUINCY         CLEAR      0  -4  83 W3        30.65R
CHICAGO        FAIR       9   4  80 W10       30.53R WCI  -5




USA.gov is the U.S. government's official web portal to all federal, state and local government web resources and services.